INTELSAT 33E DEB, 64398

Orbit data source: Space-Track

INTELSAT 33E DEB, 64398 is space debris in GEO originally from a launch on Wed, 24 Aug 2016 UTC launched from the French Guiana (FRGUI). Debris objects in space refer to the collection of defunct objects orbiting the Earth. Examples of debris include non-operational satellites, rocket bodies, and fragments generated from explosions, collisions, or faulty payload assembly.

Not visible in the next 10 days
Identifier
64398, 2016-053AC
Orbit
GEO
Country
Flag of USUS / ITSO
Related business
Manufacturer
Boeing/ES
Mission
Spacecraft
Bus & Motor
Unknown
Mass
Unknown
Launch date (UTC)
2016-08-24 (10 years ago)
Launch vehicle
Unknown
Launch site
French Guiana (FRGUI)
Object type
Payload
Rocket body
Debris
Shape & HBR
Unknown shape, 1.1 m
Radar Cross Section
RCS unknown

Expand to show TLE details & history
Last TLE update: 1 day ago

TLE from 1 day ago
0 INTELSAT 33E DEB
1 64398U 16053AC  26120.46112120  .00000087  00000-0  00000+0 0  9997
2 64398   1.3073  51.3827 0191181 320.4872  37.7070  1.00975412  5535
Epoch: 2026-04-30T11:04Z
TLE epoch observation values (Epoch: 2026-04-30T11:04:00.871Z)
Latitude
-0.00002°
Longitude
26.52807°
Altitude
34,956.807 km
Speed
3.129 km/s
True Right ascension
03h 23m 45s
True Declination
0° 00' 00"
Sunlit
Object was in daylight at epoch
Visualization orbit readout
Latitude
Unknown
Longitude
Unknown
Altitude
Unknown
Speed
Unknown
Apparent Right ascension
Unknown
Apparent Declination
Unknown
Sunlit
N/A
Visualization observer readout
Local Sidereal Time
01:15:23
Azimuth
Unknown
Elevation
Unknown
Doppler factor
Unknown
Orbital elements
Apogee altitude
36,393.945 km
Perigee altitude
34,789.183 km
Semi-major axis
41,969.701 km
Eccentricity
0.01912
Inclination
1.3073°
RAAN
51.3827°
Arg. of periapsis
320.4872°
True anomaly
39.0726°
Mean anomaly
37.707°
Eccentric anomaly
38.38721°
Mean motion
0.25243 °/min
Orbital period
1,426.14 mins
BSTAR
0
Loading maneuver chart data...
Computing Atmospheric mass density...
Loading historical data...
Loading historical data...
Loading historical data...
Loading historical data...
Loading historical data...
Loading historical data...
Loading historical data...

Documentation

Showing up to 5 results
|